| time (UTC) | temp F | wind direction | speed MPH | gust MPH | rain 1hr in | rain 24hr in | rain mn in | humidity % | barometer mb |
| 20260904005417 | 73 | 0.0 | 0.0 | 0.00 | 0.16 | 0.13 | 90 | 1011.6 | |
| 20260904004917 | 73 | 0.0 | 0.0 | 0.00 | 0.16 | 0.13 | 90 | 1011.6 | |
| 20260904004417 | 74 | 0.0 | 0.0 | 0.00 | 0.16 | 0.13 | 89 | 1011.6 | |
| 20260904003917 | 74 | 0.0 | 0.0 | 0.00 | 0.16 | 0.13 | 89 | 1011.5 | |
| 20260904003417 | 74 | 0.0 | 0.0 | 0.00 | 0.16 | 0.13 | 88 | 1011.4 | |
| 20260904002917 | 74 | 0.0 | 0.0 | 0.00 | 0.16 | 0.13 | 87 | 1011.3 | |
| 20260904002417 | 75 | 0.0 | 0.0 | 0.00 | 0.16 | 0.13 | 86 | 1011.3 | |
| 20260904001917 | 75 | 0.0 | 0.0 | 0.00 | 0.16 | 0.13 | 86 | 1011.3 | |
| 20260904001418 | 75 | 0.0 | 0.0 | 0.00 | 0.16 | 0.13 | 86 | 1011.2 | |
| 20260904000917 | 75 | 0.0 | 0.0 | 0.00 | 0.16 | 0.13 | 86 | 1011.0 | |
| 20260904000418 | 75 | 0.0 | 0.0 | 0.00 | 0.16 | 0.13 | 86 | 1010.9 | |
| 20260903235918 | 75 | 0.0 | 0.0 | 0.00 | 0.16 | 0.13 | 86 | 1011.0 | |
| 20260903235418 | 75 | 130 | 0.0 | 0.0 | 0.00 | 0.16 | 0.13 | 86 | 1011.0 |
| 20260903234918 | 75 | 132 | 1.0 | 2.0 | 0.00 | 0.16 | 0.13 | 86 | 1010.9 |
| 20260903234418 | 76 | 0.0 | 0.0 | 0.00 | 0.16 | 0.13 | 86 | 1010.9 | |
| 20260903233915 | 76 | 141 | 1.0 | 2.0 | 0.00 | 0.16 | 0.13 | 86 | 1010.7 |
| 20260903233435 | 76 | 142 | 1.0 | 2.0 | 0.00 | 0.16 | 0.13 | 86 | 1010.9 |
| 20260903232935 | 76 | 0.0 | 0.0 | 0.00 | 0.16 | 0.13 | 86 | 1011.1 | |
| 20260903232415 | 76 | 0.0 | 0.0 | 0.00 | 0.16 | 0.13 | 86 | 1011.2 | |
| 20260903231916 | 76 | 139 | 1.0 | 2.0 | 0.00 | 0.16 | 0.13 | 85 | 1011.1 |
| 20260903231416 | 76 | 140 | 0.0 | 1.0 | 0.00 | 0.16 | 0.13 | 85 | 1011.0 |
| 20260903230915 | 76 | 0.0 | 0.0 | 0.00 | 0.16 | 0.13 | 86 | 1010.9 | |
| 20260903230416 | 76 | 136 | 1.0 | 2.0 | 0.00 | 0.16 | 0.13 | 85 | 1010.7 |
| 20260903225916 | 77 | 114 | 0.0 | 0.0 | 0.00 | 0.16 | 0.13 | 85 | 1010.7 |
| 20260903225416 | 77 | 122 | 2.0 | 2.0 | 0.00 | 0.16 | 0.13 | 85 | 1010.6 |
| 20260903224916 | 78 | 161 | 1.0 | 1.0 | 0.00 | 0.16 | 0.13 | 84 | 1010.7 |
| 20260903224516 | 78 | 0.0 | 0.0 | 0.00 | 0.16 | 0.13 | 83 | 1010.7 | |
| 20260903223936 | 79 | 76 | 0.0 | 1.0 | 0.00 | 0.16 | 0.13 | 82 | 1010.6 |
| 20260903223417 | 79 | 117 | 1.0 | 2.0 | 0.00 | 0.16 | 0.13 | 81 | 1010.5 |
| 20260903222917 | 79 | 124 | 0.0 | 1.0 | 0.00 | 0.16 | 0.13 | 81 | 1010.5 |
| 20260903222417 | 79 | 142 | 1.0 | 2.0 | 0.00 | 0.16 | 0.13 | 81 | 1010.5 |
| 20260903221916 | 79 | 132 | 1.0 | 2.0 | 0.00 | 0.16 | 0.13 | 82 | 1010.6 |
| 20260903221417 | 79 | 129 | 1.0 | 1.0 | 0.00 | 0.16 | 0.13 | 83 | 1010.6 |
| 20260903220916 | 79 | 135 | 1.0 | 3.0 | 0.00 | 0.16 | 0.13 | 84 | 1010.6 |
| 20260903220417 | 78 | 118 | 1.0 | 2.0 | 0.00 | 0.16 | 0.13 | 85 | 1010.6 |
| 20260903215917 | 78 | 149 | 2.0 | 2.0 | 0.00 | 0.16 | 0.13 | 86 | 1010.6 |
| 20260903215417 | 78 | 140 | 1.0 | 3.0 | 0.00 | 0.16 | 0.13 | 87 | 1010.8 |
| 20260903214917 | 78 | 107 | 0.0 | 2.0 | 0.00 | 0.16 | 0.13 | 87 | 1010.7 |
| 20260903214417 | 79 | 129 | 1.0 | 2.0 | 0.00 | 0.16 | 0.13 | 86 | 1010.9 |
| 20260903213917 | 79 | 145 | 1.0 | 2.0 | 0.00 | 0.16 | 0.13 | 85 | 1011.0 |
| 20260903213418 | 79 | 111 | 0.0 | 1.0 | 0.00 | 0.16 | 0.13 | 85 | 1010.9 |
| 20260903212918 | 78 | 111 | 0.0 | 2.0 | 0.00 | 0.16 | 0.13 | 86 | 1011.0 |
| 20260903212420 | 77 | 153 | 1.0 | 1.0 | 0.00 | 0.16 | 0.13 | 88 | 1011.1 |
| 20260903211920 | 77 | 137 | 1.0 | 2.0 | 0.00 | 0.16 | 0.13 | 89 | 1011.0 |
| 20260903211421 | 76 | 0.0 | 0.0 | 0.00 | 0.16 | 0.13 | 92 | 1011.0 | |
| 20260903210940 | 76 | 0.0 | 0.0 | 0.00 | 0.16 | 0.13 | 92 | 1011.1 | |
| 20260903210421 | 75 | 149 | 0.0 | 1.0 | 0.00 | 0.16 | 0.13 | 93 | 1010.9 |
| 20260903205921 | 75 | 155 | 0.0 | 1.0 | 0.00 | 0.16 | 0.13 | 93 | 1010.7 |
| 20260903205435 | 75 | 0.0 | 0.0 | 0.00 | 0.16 | 0.13 | 94 | 1010.7 | |
| 20260903204941 | 75 | 0.0 | 0.0 | 0.00 | 0.16 | 0.13 | 94 | 1010.6 | |
| 20260903204441 | 74 | 0.0 | 0.0 | 0.00 | 0.16 | 0.13 | 95 | 1010.6 | |
| 20260903203921 | 74 | 0.0 | 0.0 | 0.00 | 0.16 | 0.13 | 96 | 1010.4 | |
| 20260903203421 | 74 | 0.0 | 0.0 | 0.01 | 0.16 | 0.13 | 96 | 1010.3 | |
| 20260903202941 | 74 | 0.0 | 0.0 | 0.01 | 0.16 | 0.12 | 97 | 1010.6 | |
| 20260903202421 | 74 | 0.0 | 0.0 | 0.01 | 0.16 | 0.12 | 97 | 1010.5 | |
| 20260903201922 | 74 | 0.0 | 0.0 | 0.01 | 0.16 | 0.12 | 96 | 1010.7 | |
| 20260903201421 | 74 | 0.0 | 0.0 | 0.01 | 0.16 | 0.12 | 96 | 1011.0 | |
| 20260903200921 | 74 | 0.0 | 0.0 | 0.01 | 0.16 | 0.12 | 95 | 1011.1 | |
| 20260903200422 | 74 | 0.0 | 0.0 | 0.01 | 0.16 | 0.12 | 95 | 1011.4 | |
| 20260903200001 | 74 | 0.0 | 0.0 | 0.01 | 0.16 | 0.12 | 94 | 1011.4 | |
| 20260903195422 | 74 | 0.0 | 0.0 | 0.01 | 0.16 | 0.12 | 94 | 1011.3 | |
| 20260903194922 | 74 | 0.0 | 0.0 | 0.01 | 0.16 | 0.12 | 94 | 1011.3 | |
| 20260903194422 | 74 | 0.0 | 0.0 | 0.01 | 0.16 | 0.12 | 94 | 1011.4 | |
| 20260903193922 | 74 | 119 | 0.0 | 0.0 | 0.01 | 0.16 | 0.12 | 95 | 1011.5 |
| 20260903193422 | 74 | 0.0 | 0.0 | 0.01 | 0.15 | 0.12 | 94 | 1011.8 | |
| 20260903193003 | 74 | 103 | 1.0 | 1.0 | 0.02 | 0.15 | 0.12 | 94 | 1011.9 |
| 20260903192422 | 74 | 351 | 0.0 | 1.0 | 0.04 | 0.15 | 0.12 | 93 | 1011.5 |
| 20260903191922 | 73 | 0.0 | 0.0 | 0.05 | 0.15 | 0.12 | 92 | 1011.4 | |
| 20260903191422 | 73 | 65 | 0.0 | 0.0 | 0.05 | 0.15 | 0.12 | 92 | 1011.5 |
| 20260903190922 | 73 | 59 | 0.0 | 0.0 | 0.06 | 0.15 | 0.12 | 92 | 1011.7 |
| 20260903190423 | 73 | 0.0 | 0.0 | 0.07 | 0.15 | 0.12 | 92 | 1012.0 | |
| 20260903185922 | 73 | 346 | 0.0 | 0.0 | 0.07 | 0.15 | 0.12 | 92 | 1012.2 |
| 20260903185423 | 73 | 0.0 | 0.0 | 0.07 | 0.15 | 0.12 | 91 | 1012.4 | |
| 20260903184923 | 73 | 262 | 0.0 | 1.0 | 0.07 | 0.15 | 0.12 | 91 | 1012.5 |
| 20260903184423 | 73 | 188 | 0.0 | 1.0 | 0.07 | 0.15 | 0.12 | 90 | 1012.5 |
| 20260903183923 | 73 | 296 | 1.0 | 3.0 | 0.07 | 0.15 | 0.12 | 90 | 1012.6 |
| 20260903183443 | 74 | 42 | 2.0 | 3.0 | 0.06 | 0.14 | 0.11 | 89 | 1012.8 |
| 20260903182924 | 74 | 59 | 4.0 | 4.0 | 0.06 | 0.14 | 0.10 | 88 | 1012.8 |
| 20260903182423 | 75 | 319 | 0.0 | 1.0 | 0.04 | 0.12 | 0.08 | 86 | 1013.1 |
| 20260903181924 | 76 | 58 | 2.0 | 2.0 | 0.03 | 0.11 | 0.07 | 84 | 1013.5 |
| 20260903181437 | 77 | 60 | 2.0 | 5.0 | 0.02 | 0.10 | 0.07 | 80 | 1013.4 |
| 20260903180918 | 79 | 158 | 5.0 | 11.0 | 0.01 | 0.09 | 0.05 | 77 | 1013.3 |
| 20260903180418 | 79 | 283 | 3.0 | 6.0 | 0.00 | 0.08 | 0.05 | 74 | 1013.2 |
| 20260903175917 | 80 | 134 | 2.0 | 3.0 | 0.00 | 0.08 | 0.04 | 74 | 1013.5 |
| 20260903175418 | 80 | 93 | 2.0 | 5.0 | 0.00 | 0.08 | 0.04 | 74 | 1013.1 |
| 20260903174917 | 80 | 128 | 2.0 | 5.0 | 0.00 | 0.08 | 0.04 | 75 | 1012.8 |
| 20260903174424 | 80 | 98 | 2.0 | 4.0 | 0.00 | 0.08 | 0.04 | 79 | 1012.5 |
| 20260903173924 | 80 | 109 | 3.0 | 4.0 | 0.00 | 0.08 | 0.04 | 82 | 1012.3 |
| 20260903173424 | 80 | 59 | 2.0 | 3.0 | 0.00 | 0.08 | 0.04 | 83 | 1012.3 |
| 20260903172924 | 80 | 56 | 1.0 | 2.0 | 0.00 | 0.08 | 0.04 | 84 | 1012.2 |
| 20260903172424 | 80 | 39 | 3.0 | 4.0 | 0.00 | 0.08 | 0.04 | 83 | 1012.0 |
| 20260903171944 | 80 | 46 | 2.0 | 4.0 | 0.00 | 0.08 | 0.04 | 83 | 1011.8 |
| 20260903171424 | 80 | 27 | 3.0 | 4.0 | 0.00 | 0.08 | 0.04 | 83 | 1011.5 |
| 20260903170919 | 80 | 60 | 1.0 | 3.0 | 0.00 | 0.08 | 0.04 | 83 | 1011.5 |
| 20260903170425 | 80 | 41 | 2.0 | 4.0 | 0.00 | 0.08 | 0.04 | 83 | 1011.5 |
| 20260903165919 | 81 | 284 | 1.0 | 3.0 | 0.00 | 0.08 | 0.04 | 82 | 1011.2 |
| 20260903165418 | 81 | 241 | 2.0 | 5.0 | 0.00 | 0.08 | 0.04 | 82 | 1011.1 |
| 20260903164919 | 81 | 232 | 0.0 | 2.0 | 0.00 | 0.08 | 0.04 | 82 | 1010.8 |
| 20260903164419 | 81 | 46 | 1.0 | 4.0 | 0.00 | 0.08 | 0.04 | 81 | 1010.5 |
| 20260903163918 | 81 | 236 | 1.0 | 5.0 | 0.00 | 0.08 | 0.04 | 81 | 1010.2 |
| 20260903163419 | 81 | 45 | 2.0 | 6.0 | 0.00 | 0.08 | 0.04 | 80 | 1010.2 |
| 20260903162925 | 81 | 162 | 2.0 | 3.0 | 0.00 | 0.08 | 0.04 | 80 | 1010.1 |
| 20260903162425 | 81 | 220 | 2.0 | 3.0 | 0.00 | 0.08 | 0.04 | 80 | 1010.0 |
| 20260903161915 | 81 | 229 | 2.0 | 5.0 | 0.00 | 0.08 | 0.04 | 80 | 1009.9 |
| 20260903161459 | 81 | 249 | 3.0 | 5.0 | 0.00 | 0.08 | 0.04 | 82 | 1009.8 |
| 20260903160925 | 81 | 52 | 0.0 | 1.0 | 0.00 | 0.08 | 0.04 | 82 | 1010.0 |
| 20260903160445 | 81 | 301 | 3.0 | 3.0 | 0.00 | 0.08 | 0.04 | 82 | 1010.1 |
| 20260903155925 | 81 | 302 | 1.0 | 2.0 | 0.00 | 0.08 | 0.04 | 84 | 1010.2 |
| 20260903155445 | 81 | 173 | 1.0 | 2.0 | 0.00 | 0.08 | 0.04 | 84 | 1010.2 |
| 20260903154946 | 81 | 0.0 | 0.0 | 0.00 | 0.08 | 0.04 | 88 | 1010.2 | |
| 20260903154425 | 80 | 17 | 2.0 | 4.0 | 0.00 | 0.08 | 0.04 | 87 | 1010.2 |
| 20260903153925 | 80 | 0.0 | 0.0 | 0.00 | 0.08 | 0.04 | 93 | 1010.1 | |
| 20260903153426 | 80 | 220 | 0.0 | 0.0 | 0.00 | 0.08 | 0.04 | 93 | 1010.2 |
| 20260903152925 | 80 | 0.0 | 0.0 | 0.00 | 0.08 | 0.04 | 94 | 1010.3 | |
| 20260903152425 | 80 | 0.0 | 0.0 | 0.00 | 0.08 | 0.04 | 94 | 1010.3 | |
| 20260903151925 | 79 | 0.0 | 0.0 | 0.00 | 0.08 | 0.04 | 95 | 1010.4 | |
| 20260903151426 | 79 | 0.0 | 0.0 | 0.00 | 0.08 | 0.04 | 95 | 1010.5 | |
| 20260903150926 | 79 | 58 | 1.0 | 1.0 | 0.00 | 0.08 | 0.04 | 95 | 1010.7 |
| 20260903150426 | 79 | 0.0 | 0.0 | 0.00 | 0.08 | 0.04 | 95 | 1010.9 | |
| 20260903145946 | 79 | 0.0 | 0.0 | 0.00 | 0.08 | 0.04 | 95 | 1010.8 | |
| 20260903145426 | 79 | 112 | 0.0 | 0.0 | 0.00 | 0.08 | 0.04 | 95 | 1010.7 |
| 20260903144926 | 79 | 128 | 1.0 | 1.0 | 0.00 | 0.08 | 0.04 | 94 | 1010.8 |
| 20260903144426 | 79 | 72 | 0.0 | 1.0 | 0.00 | 0.08 | 0.04 | 95 | 1010.8 |
| 20260903143926 | 79 | 0.0 | 0.0 | 0.00 | 0.08 | 0.04 | 94 | 1010.8 | |
| 20260903143446 | 79 | 0.0 | 0.0 | 0.00 | 0.08 | 0.04 | 94 | 1010.7 | |
| 20260903142926 | 79 | 0.0 | 0.0 | 0.00 | 0.08 | 0.04 | 94 | 1010.6 | |
| 20260903142426 | 79 | 0.0 | 0.0 | 0.00 | 0.08 | 0.04 | 95 | 1010.7 | |
| 20260903141926 | 78 | 0.0 | 0.0 | 0.00 | 0.08 | 0.04 | 94 | 1010.7 | |
| 20260903141427 | 78 | 0.0 | 0.0 | 0.00 | 0.08 | 0.04 | 96 | 1010.7 | |
| 20260903140947 | 78 | 37 | 0.0 | 1.0 | 0.00 | 0.08 | 0.04 | 95 | 1010.6 |
| 20260903140447 | 77 | 0.0 | 0.0 | 0.00 | 0.08 | 0.04 | 98 | 1010.5 | |
| 20260903135927 | 77 | 0.0 | 0.0 | 0.00 | 0.08 | 0.04 | 99 | 1010.5 | |
| 20260903135427 | 76 | 0.0 | 0.0 | 0.00 | 0.08 | 0.04 | 99 | 1010.5 | |
| 20260903134927 | 76 | 0.0 | 0.0 | 0.00 | 0.08 | 0.04 | 99 | 1010.7 | |
| 20260903134427 | 76 | 35 | 1.0 | 2.0 | 0.00 | 0.08 | 0.04 | 99 | 1010.6 |
| 20260903133927 | 76 | 0.0 | 0.0 | 0.00 | 0.08 | 0.04 | 100 | 1010.5 | |
| 20260903133427 | 76 | 0.0 | 0.0 | 0.00 | 0.08 | 0.04 | 100 | 1010.6 | |
| 20260903132947 | 75 | 0.0 | 0.0 | 0.00 | 0.08 | 0.04 | 100 | 1010.7 | |
| 20260903132427 | 75 | 0.0 | 0.0 | 0.00 | 0.08 | 0.04 | 100 | 1010.7 | |
| 20260903131928 | 75 | 206 | 0.0 | 1.0 | 0.00 | 0.08 | 0.04 | 100 | 1010.7 |
| 20260903131428 | 75 | 0.0 | 0.0 | 0.00 | 0.08 | 0.04 | 100 | 1010.8 | |
| 20260903130928 | 75 | 0.0 | 0.0 | 0.00 | 0.08 | 0.04 | 100 | 1010.7 | |
| 20260903130428 | 75 | 0.0 | 0.0 | 0.00 | 0.08 | 0.04 | 100 | 1010.5 | |
| 20260903125948 | 74 | 0.0 | 0.0 | 0.00 | 0.08 | 0.04 | 100 | 1010.5 | |
| 20260903125428 | 74 | 0.0 | 0.0 | 0.00 | 0.08 | 0.04 | 100 | 1010.6 | |
| 20260903124928 | 74 | 0.0 | 0.0 | 0.00 | 0.08 | 0.04 | 100 | 1010.6 | |
| 20260903124428 | 74 | 0.0 | 0.0 | 0.00 | 0.08 | 0.04 | 100 | 1010.7 | |
| 20260903123928 | 74 | 0.0 | 0.0 | 0.00 | 0.08 | 0.04 | 100 | 1010.8 | |
| 20260903123428 | 74 | 0.0 | 0.0 | 0.00 | 0.08 | 0.04 | 100 | 1010.9 | |
| 20260903123049 | 74 | 159 | 1.0 | 1.0 | 0.00 | 0.08 | 0.04 | 100 | 1010.9 |
| 20260903122429 | 74 | 0.0 | 0.0 | 0.00 | 0.08 | 0.04 | 100 | 1011.0 | |
| 20260903121929 | 74 | 0.0 | 0.0 | 0.01 | 0.08 | 0.04 | 100 | 1011.0 | |
| 20260903121429 | 74 | 0.0 | 0.0 | 0.04 | 0.08 | 0.04 | 100 | 1011.0 | |
| 20260903120928 | 74 | 0.0 | 0.0 | 0.04 | 0.08 | 0.04 | 100 | 1011.1 | |
| 20260903120429 | 74 | 0.0 | 0.0 | 0.04 | 0.08 | 0.04 | 100 | 1010.9 | |
| 20260903115929 | 74 | 0.0 | 0.0 | 0.04 | 0.08 | 0.04 | 100 | 1010.8 | |
| 20260903115429 | 73 | 0.0 | 0.0 | 0.04 | 0.08 | 0.04 | 100 | 1010.8 | |
| 20260903114929 | 73 | 0.0 | 0.0 | 0.04 | 0.08 | 0.04 | 100 | 1010.8 | |
| 20260903114509 | 73 | 97 | 0.0 | 1.0 | 0.04 | 0.08 | 0.04 | 100 | 1010.8 |
| 20260903113929 | 73 | 0.0 | 0.0 | 0.04 | 0.08 | 0.04 | 100 | 1010.7 | |
| 20260903113429 | 73 | 340 | 0.0 | 0.0 | 0.04 | 0.08 | 0.04 | 100 | 1010.6 |
| 20260903112950 | 73 | 108 | 1.0 | 1.0 | 0.04 | 0.08 | 0.04 | 100 | 1010.7 |
| 20260903112429 | 73 | 257 | 1.0 | 2.0 | 0.04 | 0.08 | 0.04 | 100 | 1011.2 |
| 20260903111929 | 73 | 0.0 | 0.0 | 0.03 | 0.07 | 0.03 | 100 | 1010.7 | |
| 20260903111419 | 73 | 0.0 | 0.0 | 0.00 | 0.04 | 0.00 | 100 | 1010.8 | |
| 20260903110930 | 73 | 0.0 | 0.0 | 0.00 | 0.04 | 0.00 | 100 | 1010.8 | |
| 20260903110510 | 73 | 0.0 | 0.0 | 0.00 | 0.04 | 0.00 | 100 | 1010.7 | |
| 20260903105930 | 73 | 0.0 | 0.0 | 0.00 | 0.04 | 0.00 | 99 | 1010.6 | |
| 20260903105430 | 73 | 0.0 | 0.0 | 0.00 | 0.04 | 0.00 | 99 | 1010.7 | |
| 20260903104930 | 73 | 0.0 | 0.0 | 0.00 | 0.04 | 0.00 | 99 | 1010.7 | |
| 20260903104430 | 73 | 0.0 | 0.0 | 0.00 | 0.04 | 0.00 | 99 | 1010.8 | |
| 20260903103915 | 73 | 0.0 | 0.0 | 0.00 | 0.04 | 0.00 | 99 | 1010.6 | |
| 20260903103415 | 73 | 0.0 | 0.0 | 0.00 | 0.04 | 0.00 | 99 | 1010.6 | |
| 20260903102915 | 73 | 0.0 | 0.0 | 0.00 | 0.04 | 0.00 | 99 | 1010.7 | |
| 20260903102415 | 73 | 0.0 | 0.0 | 0.00 | 0.04 | 0.00 | 99 | 1010.8 | |
| 20260903101915 | 73 | 0.0 | 0.0 | 0.00 | 0.04 | 0.00 | 99 | 1010.8 | |
| 20260903101415 | 73 | 0.0 | 0.0 | 0.00 | 0.04 | 0.00 | 99 | 1010.7 | |
| 20260903100916 | 73 | 0.0 | 0.0 | 0.00 | 0.04 | 0.00 | 99 | 1010.8 | |
| 20260903100416 | 73 | 0.0 | 0.0 | 0.00 | 0.04 | 0.00 | 99 | 1010.8 | |
| 20260903095916 | 73 | 236 | 0.0 | 1.0 | 0.00 | 0.04 | 0.00 | 99 | 1010.8 |
| 20260903095416 | 73 | 0.0 | 0.0 | 0.00 | 0.04 | 0.00 | 99 | 1010.7 | |
| 20260903094916 | 73 | 0.0 | 0.0 | 0.00 | 0.04 | 0.00 | 99 | 1010.8 | |
| 20260903094416 | 73 | 0.0 | 0.0 | 0.00 | 0.04 | 0.00 | 99 | 1010.8 | |
| 20260903093916 | 73 | 0.0 | 0.0 | 0.00 | 0.04 | 0.00 | 99 | 1010.7 | |
| 20260903093416 | 73 | 0.0 | 0.0 | 0.00 | 0.04 | 0.00 | 99 | 1010.7 | |
| 20260903092916 | 73 | 0.0 | 0.0 | 0.00 | 0.04 | 0.00 | 99 | 1010.7 | |
| 20260903092416 | 73 | 0.0 | 0.0 | 0.00 | 0.04 | 0.00 | 99 | 1010.7 | |
| 20260903091937 | 73 | 0.0 | 0.0 | 0.00 | 0.04 | 0.00 | 99 | 1010.6 | |
| 20260903091417 | 73 | 0.0 | 0.0 | 0.00 | 0.04 | 0.00 | 99 | 1010.6 | |
| 20260903090917 | 73 | 0.0 | 0.0 | 0.00 | 0.04 | 0.00 | 99 | 1010.7 | |
| 20260903090437 | 73 | 0.0 | 0.0 | 0.00 | 0.04 | 0.00 | 99 | 1010.7 | |
| 20260903085917 | 73 | 0.0 | 0.0 | 0.00 | 0.04 | 0.00 | 99 | 1010.6 | |
| 20260903085417 | 73 | 0.0 | 0.0 | 0.00 | 0.04 | 0.00 | 99 | 1010.6 | |
| 20260903084917 | 73 | 0.0 | 0.0 | 0.00 | 0.04 | 0.00 | 99 | 1010.7 | |
| 20260903084417 | 73 | 0.0 | 0.0 | 0.00 | 0.04 | 0.00 | 99 | 1010.7 | |
| 20260903083917 | 73 | 0.0 | 0.0 | 0.00 | 0.04 | 0.00 | 99 | 1010.7 | |
| 20260903083417 | 73 | 0.0 | 0.0 | 0.00 | 0.04 | 0.00 | 99 | 1010.7 | |
| 20260903082917 | 73 | 0.0 | 0.0 | 0.00 | 0.04 | 0.00 | 99 | 1010.7 | |
| 20260903082417 | 73 | 0.0 | 0.0 | 0.00 | 0.04 | 0.00 | 99 | 1010.7 | |
| 20260903081917 | 73 | 0.0 | 0.0 | 0.00 | 0.04 | 0.00 | 99 | 1010.7 | |
| 20260903081417 | 73 | 0.0 | 0.0 | 0.00 | 0.04 | 0.00 | 99 | 1010.7 | |
| 20260903080917 | 73 | 0.0 | 0.0 | 0.00 | 0.04 | 0.00 | 99 | 1010.6 | |
| 20260903080418 | 73 | 0.0 | 0.0 | 0.00 | 0.04 | 0.00 | 99 | 1010.6 | |
| 20260903075918 | 73 | 0.0 | 0.0 | 0.00 | 0.04 | 0.00 | 99 | 1010.6 | |
| 20260903075418 | 73 | 0.0 | 0.0 | 0.00 | 0.04 | 0.00 | 99 | 1010.6 | |
| 20260903074918 | 73 | 0.0 | 0.0 | 0.00 | 0.04 | 0.00 | 99 | 1010.5 | |
| 20260903074438 | 73 | 0.0 | 0.0 | 0.00 | 0.04 | 0.00 | 99 | 1010.5 | |
| 20260903073918 | 73 | 0.0 | 0.0 | 0.00 | 0.04 | 0.00 | 99 | 1010.5 | |
| 20260903073438 | 73 | 0.0 | 0.0 | 0.00 | 0.04 | 0.00 | 99 | 1010.5 | |
| 20260903072918 | 73 | 0.0 | 0.0 | 0.00 | 0.04 | 0.00 | 99 | 1010.5 | |
| 20260903072418 | 73 | 0.0 | 0.0 | 0.00 | 0.04 | 0.00 | 98 | 1010.6 | |
| 20260903071918 | 73 | 0.0 | 0.0 | 0.00 | 0.04 | 0.00 | 98 | 1010.6 | |
| 20260903071418 | 73 | 0.0 | 0.0 | 0.00 | 0.04 | 0.00 | 98 | 1010.6 | |
| 20260903070918 | 73 | 0.0 | 0.0 | 0.00 | 0.04 | 0.00 | 98 | 1010.6 | |
| 20260903070419 | 73 | 0.0 | 0.0 | 0.00 | 0.04 | 0.00 | 98 | 1010.6 | |
| 20260903065919 | 73 | 0.0 | 0.0 | 0.00 | 0.04 | 0.00 | 98 | 1010.5 | |
| 20260903065439 | 73 | 0.0 | 0.0 | 0.00 | 0.04 | 0.00 | 98 | 1010.5 | |
| 20260903064919 | 73 | 0.0 | 0.0 | 0.00 | 0.04 | 0.00 | 98 | 1010.5 | |
| 20260903064419 | 74 | 0.0 | 0.0 | 0.00 | 0.04 | 0.00 | 98 | 1010.5 | |
| 20260903063919 | 74 | 0.0 | 0.0 | 0.00 | 0.04 | 0.00 | 98 | 1010.5 | |
| 20260903063419 | 74 | 0.0 | 0.0 | 0.00 | 0.04 | 0.00 | 98 | 1010.5 | |
| 20260903062919 | 74 | 0.0 | 0.0 | 0.00 | 0.04 | 0.00 | 98 | 1010.5 | |
| 20260903062419 | 74 | 0.0 | 0.0 | 0.00 | 0.04 | 0.00 | 98 | 1010.4 | |
| 20260903061919 | 74 | 0.0 | 0.0 | 0.00 | 0.04 | 0.00 | 98 | 1010.4 | |
| 20260903061420 | 74 | 0.0 | 0.0 | 0.00 | 0.04 | 0.00 | 98 | 1010.4 | |
| 20260903060920 | 74 | 0.0 | 0.0 | 0.00 | 0.04 | 0.00 | 98 | 1010.5 | |
| 20260903060420 | 74 | 0.0 | 0.0 | 0.00 | 0.04 | 0.00 | 98 | 1010.5 | |
| 20260903055920 | 74 | 0.0 | 0.0 | 0.00 | 0.04 | 0.00 | 98 | 1010.5 | |
| 20260903055500 | 74 | 0.0 | 0.0 | 0.00 | 0.04 | 0.00 | 98 | 1010.4 | |
| 20260903054940 | 74 | 0.0 | 0.0 | 0.00 | 0.04 | 0.00 | 98 | 1010.4 | |
| 20260903054420 | 74 | 0.0 | 0.0 | 0.00 | 0.04 | 0.00 | 98 | 1010.4 | |
| 20260903053920 | 74 | 0.0 | 0.0 | 0.00 | 0.04 | 0.00 | 98 | 1010.4 | |
| 20260903053420 | 74 | 0.0 | 0.0 | 0.00 | 0.04 | 0.00 | 98 | 1010.4 | |
| 20260903052940 | 74 | 0.0 | 0.0 | 0.00 | 0.04 | 0.00 | 98 | 1010.4 | |
| 20260903052420 | 74 | 0.0 | 0.0 | 0.00 | 0.04 | 0.00 | 98 | 1010.3 | |
| 20260903051920 | 75 | 0.0 | 0.0 | 0.00 | 0.04 | 0.00 | 98 | 1010.3 | |
| 20260903051501 | 75 | 0.0 | 0.0 | 0.00 | 0.04 | 0.00 | 98 | 1010.3 | |
| 20260903050921 | 75 | 0.0 | 0.0 | 0.00 | 0.04 | 0.00 | 98 | 1010.3 | |
| 20260903050421 | 75 | 0.0 | 0.0 | 0.00 | 0.04 | 0.00 | 98 | 1010.3 | |
| 20260903045941 | 75 | 0.0 | 0.0 | 0.00 | 0.04 | 0.00 | 98 | 1010.2 | |
| 20260903045421 | 75 | 0.0 | 0.0 | 0.00 | 0.04 | 0.00 | 98 | 1010.2 | |
| 20260903044921 | 75 | 0.0 | 0.0 | 0.00 | 0.04 | 0.00 | 98 | 1010.2 | |
| 20260903044421 | 75 | 0.0 | 0.0 | 0.00 | 0.04 | 0.00 | 98 | 1010.2 | |
| 20260903043921 | 75 | 0.0 | 0.0 | 0.00 | 0.04 | 0.00 | 98 | 1010.1 | |
| 20260903043441 | 75 | 0.0 | 0.0 | 0.00 | 0.04 | 0.00 | 98 | 1010.2 | |
| 20260903042921 | 75 | 0.0 | 0.0 | 0.00 | 0.04 | 0.00 | 98 | 1010.2 | |
| 20260903042421 | 75 | 0.0 | 0.0 | 0.00 | 0.04 | 0.00 | 98 | 1010.1 | |
| 20260903041921 | 75 | 0.0 | 0.0 | 0.00 | 0.04 | 0.00 | 98 | 1010.1 | |
| 20260903041421 | 75 | 0.0 | 0.0 | 0.00 | 0.04 | 0.00 | 98 | 1010.1 | |
| 20260903040921 | 75 | 0.0 | 0.0 | 0.00 | 0.04 | 0.00 | 98 | 1010.1 | |
| 20260903040422 | 75 | 0.0 | 0.0 | 0.00 | 0.04 | 0.00 | 98 | 1010.1 | |
| 20260903035921 | 75 | 0.0 | 0.0 | 0.00 | 0.04 | 0.04 | 97 | 1010.0 | |
| 20260903035422 | 75 | 0.0 | 0.0 | 0.00 | 0.04 | 0.04 | 98 | 1010.0 | |
| 20260903034916 | 75 | 0.0 | 0.0 | 0.00 | 0.04 | 0.04 | 97 | 1010.1 | |
| 20260903034416 | 75 | 0.0 | 0.0 | 0.00 | 0.04 | 0.04 | 97 | 1010.1 | |
| 20260903033916 | 75 | 0.0 | 0.0 | 0.00 | 0.04 | 0.04 | 97 | 1010.1 | |
| 20260903033416 | 75 | 0.0 | 0.0 | 0.00 | 0.04 | 0.04 | 97 | 1010.1 | |
| 20260903032916 | 75 | 0.0 | 0.0 | 0.00 | 0.04 | 0.04 | 97 | 1010.1 | |
| 20260903032437 | 75 | 0.0 | 0.0 | 0.00 | 0.04 | 0.04 | 97 | 1010.1 | |
| 20260903031937 | 75 | 0.0 | 0.0 | 0.00 | 0.04 | 0.04 | 97 | 1010.2 | |
| 20260903031416 | 75 | 0.0 | 0.0 | 0.00 | 0.04 | 0.04 | 97 | 1010.2 | |
| 20260903030917 | 75 | 0.0 | 0.0 | 0.00 | 0.04 | 0.04 | 97 | 1010.1 | |
| 20260903030417 | 75 | 0.0 | 0.0 | 0.00 | 0.04 | 0.04 | 97 | 1010.1 | |
| 20260903025957 | 76 | 0.0 | 0.0 | 0.00 | 0.04 | 0.04 | 96 | 1010.1 | |
| 20260903025437 | 76 | 0.0 | 0.0 | 0.01 | 0.04 | 0.04 | 96 | 1010.1 | |
| 20260903024917 | 76 | 0.0 | 0.0 | 0.04 | 0.04 | 0.04 | 96 | 1010.1 | |
| 20260903024417 | 76 | 0.0 | 0.0 | 0.04 | 0.04 | 0.04 | 95 | 1010.1 | |
| 20260903023937 | 76 | 0.0 | 0.0 | 0.04 | 0.04 | 0.04 | 95 | 1010.1 | |
| 20260903023437 | 76 | 0.0 | 0.0 | 0.04 | 0.04 | 0.04 | 95 | 1010.0 | |
| 20260903022957 | 76 | 0.0 | 0.0 | 0.04 | 0.04 | 0.04 | 95 | 1009.9 | |
| 20260903022437 | 76 | 0.0 | 0.0 | 0.04 | 0.04 | 0.04 | 95 | 1009.9 | |
| 20260903021918 | 76 | 19 | 0.0 | 2.0 | 0.04 | 0.04 | 0.04 | 94 | 1010.0 |
| 20260903021417 | 77 | 0.0 | 0.0 | 0.04 | 0.04 | 0.04 | 92 | 1010.0 | |
| 20260903020918 | 77 | 0.0 | 0.0 | 0.04 | 0.04 | 0.04 | 92 | 1010.1 | |
| 20260903020438 | 77 | 35 | 0.0 | 1.0 | 0.04 | 0.04 | 0.04 | 91 | 1010.1 |
| 20260903015918 | 78 | 172 | 0.0 | 2.0 | 0.03 | 0.03 | 0.03 | 89 | 1010.1 |
| 20260903015438 | 78 | 118 | 0.0 | 1.0 | 0.03 | 0.03 | 0.03 | 87 | 1010.4 |
| 20260903014918 | 78 | 261 | 0.0 | 0.0 | 0.00 | 0.00 | 0.00 | 86 | 1010.3 |
| 20260903014418 | 78 | 0.0 | 0.0 | 0.00 | 0.00 | 0.00 | 85 | 1009.9 | |
| 20260903013918 | 78 | 0.0 | 0.0 | 0.00 | 0.00 | 0.00 | 85 | 1010.0 | |
| 20260903013415 | 78 | 0.0 | 0.0 | 0.00 | 0.00 | 0.00 | 84 | 1009.9 | |
| 20260903012915 | 79 | 0.0 | 0.0 | 0.00 | 0.00 | 0.00 | 84 | 1009.9 | |
| 20260903012455 | 79 | 0.0 | 0.0 | 0.00 | 0.00 | 0.00 | 84 | 1010.0 | |
| 20260903011915 | 79 | 0.0 | 0.0 | 0.00 | 0.00 | 0.00 | 83 | 1009.9 | |
| 20260903011415 | 79 | 0.0 | 0.0 | 0.00 | 0.00 | 0.00 | 83 | 1009.8 | |
| 20260903010915 | 79 | 0.0 | 0.0 | 0.00 | 0.00 | 0.00 | 83 | 1009.6 | |
| 20260903010416 | 79 | 0.0 | 0.0 | 0.00 | 0.00 | 0.00 | 81 | 1009.5 | |
| 20260903005935 | 80 | 0.0 | 0.0 | 0.00 | 0.00 | 0.00 | 81 | 1009.4 |